Hourly Weather Bolshie Kuliki

Today, 23 July, Friday

Time Temperature Precipitation Wind Pressure Humidity
00:00 +14°C° 0 mm 3 mps 744 mmHg 68%
01:00 +15°C° 0 mm 2 mps 744 mmHg 67%
02:00 +14°C° 0 mm 2 mps 744 mmHg 66%
03:00 +14°C° 0 mm 2 mps 744 mmHg 65%
04:00 +14°C° 0 mm 2 mps 744 mmHg 65%
05:00 +14°C° 0 mm 2 mps 745 mmHg 65%
06:00 +15°C° 0 mm 2 mps 745 mmHg 65%
07:00 +17°C° 0 mm 2 mps 745 mmHg 58%
08:00 +19°C° 0 mm 3 mps 744 mmHg 52%
09:00 +21°C° 0 mm 3 mps 744 mmHg 43%
10:00 +22°C° 0 mm 3 mps 744 mmHg 40%
11:00 +24°C° 0 mm 3 mps 744 mmHg 38%
12:00 +25°C° 0 mm 4 mps 744 mmHg 35%
13:00 +25°C° 0 mm 4 mps 744 mmHg 35%
14:00 +25°C° 0 mm 4 mps 744 mmHg 35%
15:00 +26°C° 0 mm 4 mps 743 mmHg 35%
16:00 +25°C° 0 mm 4 mps 743 mmHg 39%
17:00 +25°C° 0 mm 3 mps 743 mmHg 42%
18:00 +24°C° 0 mm 3 mps 743 mmHg 46%
19:00 +22°C° 0 mm 3 mps 743 mmHg 49%
20:00 +21°C° 0 mm 3 mps 743 mmHg 52%
21:00 +19°C° 0 mm 2 mps 743 mmHg 55%
22:00 +18°C° 0 mm 3 mps 744 mmHg 61%
23:00 +17°C° 0 mm 3 mps 744 mmHg 67%

Tomorrow, 24 July, Saturday

Time Temperature Precipitation Wind Pressure Humidity
00:00 +16°C° 0 mm 3 mps 744 mmHg 72%
01:00 +14°C° 0 mm 3 mps 744 mmHg 76%
02:00 +14°C° 0 mm 3 mps 744 mmHg 80%
03:00 +13°C° 0 mm 3 mps 745 mmHg 83%
04:00 +13°C° 0 mm 3 mps 745 mmHg 82%
05:00 +14°C° 0 mm 3 mps 745 mmHg 81%
06:00 +14°C° 0 mm 3 mps 746 mmHg 79%
07:00 +17°C° 0 mm 3 mps 746 mmHg 70%
08:00 +19°C° 0 mm 3 mps 746 mmHg 61%
09:00 +20°C° 0 mm 4 mps 746 mmHg 52%
10:00 +21°C° 0 mm 4 mps 746 mmHg 47%
11:00 +22°C° 0 mm 4 mps 747 mmHg 41%
12:00 +23°C° 0 mm 5 mps 747 mmHg 36%
13:00 +23°C° 0 mm 4 mps 747 mmHg 38%
14:00 +22°C° 0 mm 4 mps 747 mmHg 41%
15:00 +21°C° 0 mm 4 mps 748 mmHg 44%
16:00 +21°C° 0 mm 3 mps 748 mmHg 44%
17:00 +21°C° 0 mm 3 mps 748 mmHg 45%
18:00 +21°C° 0 mm 3 mps 749 mmHg 46%
19:00 +19°C° 0 mm 3 mps 749 mmHg 50%
20:00 +18°C° 0 mm 2 mps 750 mmHg 54%
21:00 +17°C° 0 mm 2 mps 750 mmHg 58%
22:00 +16°C° 0 mm 1 mps 751 mmHg 59%
23:00 +16°C° 0 mm 1 mps 751 mmHg 60%

Day after tomorrow, 25 July, Sunday

Time Temperature Precipitation Wind Pressure Humidity
00:00 +16°C° 0 mm 1 mps 751 mmHg 61%
01:00 +16°C° 0 mm 1 mps 751 mmHg 62%
02:00 +16°C° 0 mm 1 mps 752 mmHg 63%
03:00 +15°C° 0 mm 1 mps 752 mmHg 64%
04:00 +16°C° 0 mm 1 mps 752 mmHg 65%
05:00 +16°C° 0 mm 1 mps 753 mmHg 65%
06:00 +16°C° 0 mm 1 mps 753 mmHg 66%
07:00 +18°C° 0 mm 1 mps 753 mmHg 64%
08:00 +18°C° 0 mm 1 mps 754 mmHg 61%
09:00 +19°C° 0 mm 1 mps 754 mmHg 58%
10:00 +20°C° 0 mm 1 mps 754 mmHg 52%
11:00 +22°C° 0 mm 1 mps 754 mmHg 46%
12:00 +23°C° 0 mm 2 mps 754 mmHg 40%
13:00 +23°C° 0 mm 1 mps 754 mmHg 38%
14:00 +24°C° 0 mm 1 mps 754 mmHg 36%
15:00 +24°C° 0 mm 1 mps 754 mmHg 34%
16:00 +24°C° 0 mm 1 mps 754 mmHg 36%
17:00 +23°C° 0 mm 1 mps 754 mmHg 39%
18:00 +23°C° 0 mm 1 mps 754 mmHg 41%
19:00 +22°C° 0 mm 1 mps 755 mmHg 44%
20:00 +21°C° 0 mm 1 mps 755 mmHg 46%
21:00 +19°C° 0 mm 1 mps 755 mmHg 49%
22:00 +19°C° 0 mm 1 mps 755 mmHg 49%
23:00 +19°C° 0 mm 1 mps 755 mmHg 49%

26 July, Monday

Time Temperature Precipitation Wind Pressure Humidity
00:00 +19°C° 0 mm 1 mps 756 mmHg 50%
01:00 +17°C° 0 mm 0 mps 756 mmHg 51%
02:00 +16°C° 0 mm 0 mps 756 mmHg 52%
03:00 +16°C° 0 mm 0 mps 756 mmHg 53%
04:00 +16°C° 0 mm 0 mps 756 mmHg 55%
05:00 +16°C° 0 mm 0 mps 756 mmHg 57%
06:00 +16°C° 0 mm 0 mps 756 mmHg 59%
07:00 +18°C° 0 mm 0 mps 757 mmHg 52%
08:00 +20°C° 0 mm 0 mps 757 mmHg 46%
09:00 +22°C° 0 mm 0 mps 757 mmHg 40%
10:00 +25°C° 0 mm 1 mps 757 mmHg 36%
11:00 +26°C° 0 mm 1 mps 757 mmHg 33%
12:00 +26°C° 0 mm 1 mps 757 mmHg 29%
13:00 +27°C° 0 mm 1 mps 756 mmHg 28%
14:00 +27°C° 0 mm 1 mps 756 mmHg 28%
15:00 +27°C° 0 mm 1 mps 756 mmHg 27%
16:00 +27°C° 0 mm 1 mps 756 mmHg 29%
17:00 +27°C° 0 mm 1 mps 756 mmHg 32%
18:00 +26°C° 0 mm 1 mps 756 mmHg 34%
19:00 +25°C° 0 mm 1 mps 756 mmHg 38%
20:00 +23°C° 0 mm 1 mps 756 mmHg 42%
21:00 +21°C° 0 mm 1 mps 756 mmHg 45%
22:00 +20°C° 0 mm 1 mps 756 mmHg 48%
23:00 +19°C° 0 mm 1 mps 756 mmHg 51%

27 July, Tuesday

Time Temperature Precipitation Wind Pressure Humidity
00:00 +16°C° 0 mm 0 mps 756 mmHg 53%
01:00 +16°C° 0 mm 0 mps 756 mmHg 54%
02:00 +16°C° 0 mm 0 mps 756 mmHg 55%
03:00 +16°C° 0 mm 0 mps 756 mmHg 56%
04:00 +18°C° 0 mm 1 mps 756 mmHg 56%
05:00 +19°C° 0 mm 1 mps 756 mmHg 56%
06:00 +19°C° 0 mm 1 mps 756 mmHg 56%
07:00 +21°C° 0 mm 1 mps 756 mmHg 50%
08:00 +23°C° 0 mm 1 mps 756 mmHg 44%
09:00 +25°C° 0 mm 1 mps 756 mmHg 38%
10:00 +26°C° 0 mm 2 mps 756 mmHg 36%
11:00 +27°C° 0 mm 2 mps 756 mmHg 33%
12:00 +29°C° 0 mm 2 mps 755 mmHg 30%
13:00 +29°C° 0 mm 2 mps 755 mmHg 30%
14:00 +29°C° 0 mm 2 mps 755 mmHg 30%
15:00 +29°C° 0 mm 3 mps 755 mmHg 31%
16:00 +28°C° 0 mm 3 mps 754 mmHg 33%
17:00 +28°C° 0 mm 3 mps 754 mmHg 35%
18:00 +27°C° 0 mm 2 mps 754 mmHg 38%
19:00 +26°C° 0 mm 2 mps 754 mmHg 41%
20:00 +24°C° 0 mm 2 mps 754 mmHg 45%
21:00 +21°C° 0 mm 2 mps 754 mmHg 49%
22:00 +21°C° 0 mm 2 mps 754 mmHg 52%
23:00 +20°C° 0 mm 2 mps 754 mmHg 55%

28 July, Wednesday

Time Temperature Precipitation Wind Pressure Humidity
00:00 +19°C° 0 mm 2 mps 754 mmHg 58%
01:00 +18°C° 0 mm 2 mps 754 mmHg 61%
02:00 +18°C° 0 mm 2 mps 754 mmHg 64%
03:00 +18°C° 0 mm 1 mps 754 mmHg 66%
04:00 +19°C° 0 mm 1 mps 754 mmHg 66%
05:00 +19°C° 0 mm 1 mps 754 mmHg 65%
06:00 +20°C° 0 mm 1 mps 754 mmHg 65%
07:00 +22°C° 0 mm 1 mps 754 mmHg 58%
08:00 +24°C° 0 mm 1 mps 754 mmHg 51%
09:00 +26°C° 0 mm 2 mps 754 mmHg 44%
10:00 +28°C° 0 mm 2 mps 753 mmHg 40%
11:00 +29°C° 0 mm 2 mps 753 mmHg 36%
12:00 +30°C° 0 mm 2 mps 753 mmHg 33%
13:00 +31°C° 0 mm 2 mps 752 mmHg 31%
14:00 +31°C° 0 mm 2 mps 752 mmHg 30%
15:00 +31°C° 0 mm 2 mps 751 mmHg 28%
16:00 +31°C° 0 mm 2 mps 751 mmHg 30%
17:00 +30°C° 0 mm 2 mps 751 mmHg 32%
18:00 +30°C° 0 mm 2 mps 751 mmHg 34%
19:00 +28°C° 0 mm 2 mps 750 mmHg 38%
20:00 +26°C° 0 mm 2 mps 750 mmHg 42%
21:00 +24°C° 0 mm 2 mps 750 mmHg 46%
22:00 +24°C° 0 mm 3 mps 750 mmHg 47%
23:00 +22°C° 0 mm 3 mps 749 mmHg 48%
Show more

We Need Your Consent

Meteoprog and our Service Providers may store and access personal data such as cookies, device identifiers or other similar technologies on your device and process such data to personalise content and ads, as well as provide social media features and to analyse the traffic.

  • Store and/or access information on your device

    Cookies, device identifiers or other information can be stored or accessed on your device for the purposes indicated above.

  • Personalised ads and content, ad and content measurement, audience insights, and products development

    Ads and content can be personalised based on a profile. More data can be added to better personalise ads and content. Ad and content performance can be measured. Insights about the audience who saw the ads and content can be derived. Such data can be used to develop or improve user’s experience, systems and software.

By clicking ‘I Agree’ you will allow the use of indicated cookies, device identifiers, web beacons or other similar technologies. Your settings can be changed in the browser on your device.

For certain purposes, legitimate interests may be relied on, rather than consent. You can read more about this in our Privacy and Cookie Policy.